Regional Weather Roundup
Issued by NWS

Home | Current Version | Previous Version | Graphics & Text | Print | Product List | Glossary On
Versions: 1 2 3 4 5 6 7 8 9 10 11 12 13 14 15 16 17 18 19 20 21 22 23 24 25 26 27 28 29 30 31 32 33 34 35 36 37 38 39 40 41 42 43 44 45 46 47 48 49 50
000
ASUS43 KFSD 172302
RWRSD

WEATHER ROUNDUP FOR SOUTH DAKOTA
NATIONAL WEATHER SERVICE SIOUX FALLS SD
600 PM CDT FRI APR 17 2015

NOTE: "FAIR" INDICATES FEW OR NO CLOUDS BELOW 12,000 FEET WITH NO
SIGNIFICANT WEATHER AND/OR OBSTRUCTIONS TO VISIBILITY.


SDZ001>005-009-010-012>017-180000-
NORTHWEST AND NORTH CENTRAL SOUTH DAKOTA

CITY           SKY/WX    TMP DP  RH WIND       PRES   REMARKS
BUFFALO          N/A     65  27  23 E7        30.04F
FAITH            N/A     66  22  18 SE8       30.09F
MOBRIDGE       PTSUNNY   71  23  16 VRB6      30.05F
$$

SDZ012>016-024>037-041>051-057-063-072>074-180000-
SOUTHWEST AND SOUTH CENTRAL SOUTH DAKOTA

CITY           SKY/WX    TMP DP  RH WIND       PRES   REMARKS
RAPID CTY ARPT CLOUDY    52  39  61 SW9       30.12F
PIERRE         PTSUNNY   70  31  23 SE3       30.06S
CUSTER         LGT RAIN  40  35  83 NE10      30.14S
ELLSWORTH AFB  CLOUDY    54  36  50 SW9       30.11F
PHILIP         LGT RAIN  63  34  33 SE7       30.09S
PINE RIDGE     RAIN      48  45  89 NE8       30.11S FOG
WINNER         LGT RAIN  59  52  77 SW9       30.08S
$$

SDZ004>011-016>023-039-040-180000-
NORTHEAST SOUTH DAKOTA

CITY           SKY/WX    TMP DP  RH WIND       PRES   REMARKS
ABERDEEN       MOSUNNY   75  22  13 N12       30.06F
WATERTOWN      MOSUNNY   70  19  14 VRB6      30.07S
BROOKINGS      SUNNY     72  27  18 N9        30.06S
SISSETON         N/A     73  14  10 N8        30.05S
$$

SDZ017-020-022-023-036>040-048>070-180000-
SOUTHEAST SOUTH DAKOTA

CITY           SKY/WX    TMP DP  RH WIND       PRES   REMARKS
SIOUX FALLS    PTSUNNY   74  42  31 N5        30.03S
HURON          MOSUNNY   74  30  19 N8        30.05S
MITCHELL       PTSUNNY   74  35  24 N9        30.04F
YANKTON        CLOUDY    68  50  52 W5        30.03S
$$

ABBREVIATIONS USED IN REMARKS
   TC - TEMPERATURE IN CELSIUS
  WCI - WIND CHILL INDEX
   HX - HEAT INDEX
  VSB - VISIBILITY




USA.gov is the U.S. government's official web portal to all federal, state and local government web resources and services.